Orbital Elements at Epoch 2459200.5 (2020-Dec-17.0) TDB
Reference: JPL 32 (heliocentric ecliptic J2000)
Element | Value | Uncertainty (1-sigma) | Units |
e | .103381040412633 | 3.2344e-08 | |
a | 2.806733930421951 | 9.731e-09 | au |
q | 2.516570856533491 | 9.15e-08 | au |
i | 4.768649015432567 | 3.6465e-06 | deg |
node | 199.6248876174638 | 3.6774e-05 | deg |
peri | 129.7353055686195 | 4.0339e-05 | deg |
M | 28.78060473144382 | 1.5276e-05 | deg |
tp | 2459063.191409724614 (2020-Aug-01.69140972) | 7.2914e-05 | TDB |
period | 1717.514032814393 4.70 | 8.932e-06 2.445e-08 | d yr |
n | .2096052743220317 | 1.0901e-09 | deg/d |
Q | 3.09689700431041 | 1.0737e-08 | au |
|
| | Orbit Determination Parameters
Additional Information
|